Meteo

Meteo


Dettagli e Storico

Webcam

Webcam in aeroporto – Aggiornata ogni minuto
Osservatorio Meteorologico Cocomaro di Cona – Ferrara

NOAA IMAGE

NOAA

Windy

METAR

Aviation Digital Data Service (ADDS)

Output produced by METARs form (0729 UTC 20 April 2021)
found at http://www.aviationweather.gov/metar/data/
 
METAR text: LIPF 200655Z 23002KT CAVOK 09/06 Q1015 RMK FEW FEW200 VIS MIN 9999
Conditions at: LIPF (FERRARA (AUT) , IT) observed 0655 UTC 20 April 2021
Temperature: 9.0°C (48°F)
Dewpoint: 6.0°C (43°F) [RH = 81%]
Pressure (altimeter): 29.97 inches Hg (1015.0 mb)
Winds: from the SW (230 degrees) at 2 MPH (2 knots; 1.0 m/s)
Visibility: 6 or more miles (10+ km)
Ceiling: ceiling and visibility are OK
Clouds: unknown
Weather: no significant weather observed at this time

METAR text: LIPE 200720Z 21003KT 190V250 CAVOK 12/04 Q1015
Conditions at: LIPE (BOLOGNA/BORGO (A, IT) observed 0720 UTC 20 April 2021
Temperature: 12.0°C (54°F)
Dewpoint: 4.0°C (39°F) [RH = 58%]
Pressure (altimeter): 29.97 inches Hg (1015.0 mb)
Winds: from the SSW (210 degrees) at 3 MPH (3 knots; 1.5 m/s)
Visibility: 6 or more miles (10+ km)
Ceiling: ceiling and visibility are OK
Clouds: unknown
Weather: no significant weather observed at this time

Forecast for: LIPE (BOLOGNA/BORGO (A, IT)
Text: TAF LIPE 200500Z 2006/2106 VRB05KT 9999 SCT040
Forecast period: 0600 UTC 20 April 2021 to 0600 UTC 21 April 2021
Forecast type: FROM: standard forecast or significant change
Winds: variable direction winds at 6 MPH (5 knots; 2.6 m/s)
Visibility: 6 or more miles (10+ km)
Ceiling: at least 12,000 feet AGL
Clouds: scattered clouds at 4000 feet AGL
Weather: no significant weather forecast for this period

METAR text: LIPX 200720Z VRB01KT CAVOK 10/05 Q1015
Conditions at: LIPX (VILLAFRANCA(CV/M, IT) observed 0720 UTC 20 April 2021
Temperature: 10.0°C (50°F)
Dewpoint: 5.0°C (41°F) [RH = 71%]
Pressure (altimeter): 29.97 inches Hg (1015.0 mb)
Winds: variable direction winds at 1 MPH (1 knots; 0.5 m/s)
Visibility: 6 or more miles (10+ km)
Ceiling: ceiling and visibility are OK
Clouds: unknown
Weather: no significant weather observed at this time

Forecast for: LIPX (VILLAFRANCA(CV/M, IT)
Text: TAF LIPX 200500Z 2006/2015 VRB05KT CAVOK
Forecast period: 0600 to 1500 UTC 20 April 2021
Forecast type: FROM: standard forecast or significant change
Winds: variable direction winds at 6 MPH (5 knots; 2.6 m/s)
Visibility: 6 or more miles (10+ km)
Ceiling: unknown
Clouds: missing
Weather: NSW  (no significant weather)
Text: TEMPO 2011/2015 4000 SHRA
Forecast period: 1100 to 1500 UTC 20 April 2021
Forecast type: TEMPORARY: The following changes expected for less than half the time period
Visibility: 2.49 miles (4.01 km)
Ceiling: unknown
Clouds: missing
Weather: SHRA  (rain showers)

METAR text: LIPZ 200720Z 05004KT CAVOK 11/08 Q1015 NOSIG
Conditions at: LIPZ (VENEZIA/TESSERA , IT) observed 0720 UTC 20 April 2021
Temperature: 11.0°C (52°F)
Dewpoint: 8.0°C (46°F) [RH = 82%]
Pressure (altimeter): 29.97 inches Hg (1015.0 mb)
Winds: from the NE (50 degrees) at 5 MPH (4 knots; 2.1 m/s)
Visibility: 6 or more miles (10+ km)
Ceiling: ceiling and visibility are OK
Clouds: unknown
Weather: no significant weather observed at this time

Forecast for: LIPZ (VENEZIA/TESSERA , IT)
Text: TAF LIPZ 200500Z 2006/2112 VRB05KT 9999 SCT030
Forecast period: 0600 to 0800 UTC 20 April 2021
Forecast type: FROM: standard forecast or significant change
Winds: variable direction winds at 6 MPH (5 knots; 2.6 m/s)
Visibility: 6 or more miles (10+ km)
Ceiling: at least 12,000 feet AGL
Clouds: scattered clouds at 3000 feet AGL
Weather: no significant weather forecast for this period
Text: BECMG 2008/2010 17010KT
Forecast period: 0800 to 1600 UTC 20 April 2021
Forecast type: BECOMING: Conditions expected to become as follows by 1000 UTC 20 April 2021
Winds: from the S (170 degrees) at 12 MPH (10 knots; 5.1 m/s)
Visibility: 6 or more miles (10+ km)
Ceiling: at least 12,000 feet AGL
Clouds: scattered clouds at 3000 feet AGL
Weather: no significant weather forecast for this period
Text: BECMG 2016/2018 VRB05KT
Forecast period: 1600 UTC 20 April 2021 to 1200 UTC 21 April 2021
Forecast type: BECOMING: Conditions expected to become as follows by 1800 UTC 20 April 2021
Winds: variable direction winds at 6 MPH (5 knots; 2.6 m/s)
Visibility: 6 or more miles (10+ km)
Ceiling: at least 12,000 feet AGL
Clouds: scattered clouds at 3000 feet AGL
Weather: no significant weather forecast for this period